H1 CPF 2 NER 2025 11 13 9 317 01 glonass129 H2 1106402 9129 37868 2025 11 13 0 0 0 2025 11 16 23 45 0 900 1 1 0 0 0 1 H9 10 0 60992 0.00000 0 -6280938.475 8797250.525 23139876.239 10 0 60992 900.00000 0 -8827422.985 7578206.527 22730786.202 10 0 60992 1800.00000 0 -11386468.904 6580431.706 21881665.334 10 0 60992 2700.00000 0 -13889452.936 5816029.083 20608667.566 10 0 60992 3600.00000 0 -16267748.497 5284574.508 18936161.462 10 0 60992 4500.00000 0 -18455397.301 4973292.639 16896285.678 10 0 60992 5400.00000 0 -20391690.662 4857763.287 14528352.860 10 0 60992 6300.00000 0 -22023553.370 4903130.178 11878111.134 10 0 60992 7200.00000 0 -23307630.147 5065762.867 8996875.370 10 0 60992 8100.00000 0 -24211986.197 5295303.051 5940543.371 10 0 60992 9000.00000 0 -24717348.760 5537009.586 2768514.942 10 0 60992 9900.00000 0 -24817835.400 5734303.014 -457465.468 10 0 60992 10800.00000 0 -24521136.196 5831401.043 -3674519.740 10 0 60992 11700.00000 0 -23848140.268 5775931.641 -6819876.040 10 0 60992 12600.00000 0 -22832020.911 5521410.687 -9832111.950 10 0 60992 13500.00000 0 -21516817.220 5029476.317 -12652374.519 10 0 60992 14400.00000 0 -19955572.019 4271782.305 -15225551.232 10 0 60992 15300.00000 0 -18208105.412 3231467.354 -17501366.786 10 0 60992 16200.00000 0 -16338519.146 1904135.517 -19435382.324 10 0 60992 17100.00000 0 -14412538.681 298304.230 -20989876.012 10 0 60992 18000.00000 0 -12494806.685 -1564700.373 -22134586.665 10 0 60992 18900.00000 0 -10646243.502 -3651397.200 -22847305.370 10 0 60992 19800.00000 0 -8921586.729 -5917325.617 -23114303.602 10 0 60992 20700.00000 0 -7367213.872 -8308692.669 -22930589.979 10 0 60992 21600.00000 0 -6019339.275 -10764422.232 -22299991.661 10 0 60992 22500.00000 0 -4902659.967 -13218519.272 -21235060.067 10 0 60992 23400.00000 0 -4029505.461 -15602649.283 -19756804.277 10 0 60992 24300.00000 0 -3399524.693 -17848824.320 -17894258.956 10 0 60992 25200.00000 0 -2999920.323 -19892083.068 -15683896.800 10 0 60992 26100.00000 0 -2806217.349 -21673053.111 -13168898.542 10 0 60992 27000.00000 0 -2783530.536 -23140289.099 -10398296.099 10 0 60992 27900.00000 0 -2888274.424 -24252290.461 -7426006.663 10 0 60992 28800.00000 0 -3070241.427 -24979116.107 -4309777.494 10 0 60992 29700.00000 0 -3274958.662 -25303530.827 -1110062.429 10 0 60992 30600.00000 0 -3446223.010 -25221637.825 2111147.828 10 0 60992 31500.00000 0 -3528707.156 -24742973.295 5291519.089 10 0 60992 32400.00000 0 -3470526.999 -23890061.245 8369568.159 10 0 60992 33300.00000 0 -3225663.018 -22697448.879 11285836.248 10 0 60992 34200.00000 0 -2756134.729 -21210264.008 13984019.848 10 0 60992 35100.00000 0 -2033837.915 -19482355.147 16412038.822 10 0 60992 36000.00000 0 -1041968.436 -17574091.626 18523022.854 10 0 60992 36900.00000 0 224026.555 -15549914.460 20276199.000 10 0 60992 37800.00000 0 1756009.835 -13475738.424 21637665.004 10 0 60992 38700.00000 0 3533246.951 -11416311.512 22581034.966 10 0 60992 39600.00000 0 5523028.259 -9432639.481 23087946.031 10 0 60992 40500.00000 0 7681796.524 -7579580.490 23148416.952 10 0 60992 41400.00000 0 9956735.897 -5903708.030 22761051.622 10 0 60992 42300.00000 0 12287759.274 -4441529.737 21933083.016 10 0 60992 43200.00000 0 14609814.567 -3218135.493 20680255.450 10 0 60992 44100.00000 0 16855416.931 -2246331.105 19026545.642 10 0 60992 45000.00000 0 18957303.972 -1526294.276 17003725.772 10 0 60992 45900.00000 0 20851105.060 -1045768.344 14650774.605 10 0 60992 46800.00000 0 22477914.269 -780787.043 12013145.676 10 0 60992 47700.00000 0 23786659.311 -696901.349 9141904.560 10 0 60992 48600.00000 0 24736166.378 -750858.064 6092750.253 10 0 60992 49500.00000 0 25296832.613 -892660.238 2924938.492 10 0 60992 50400.00000 0 25451833.762 -1067922.644 -299872.418 10 0 60992 51300.00000 0 25197813.807 -1220422.137 -3518830.536 10 0 60992 52200.00000 0 24545025.199 -1294733.623 -6669129.434 10 0 60992 53100.00000 0 23516911.809 -1238837.934 -9689251.785 10 0 60992 54000.00000 0 22149150.847 -1006588.483 -12520191.153 10 0 60992 54900.00000 0 20488193.459 -559929.303 -15106625.972 10 0 60992 55800.00000 0 18589365.693 129232.458 -17398020.526 10 0 60992 56700.00000 0 16514610.660 1077581.560 -19349629.488 10 0 60992 57600.00000 0 14329968.257 2289440.648 -20923384.780 10 0 60992 58500.00000 0 12102900.152 3756349.157 -22088646.297 10 0 60992 59400.00000 0 9899574.025 5457193.943 -22822801.263 10 0 60992 60300.00000 0 7782222.453 7358886.479 -23111700.552 10 0 60992 61200.00000 0 5806688.092 9417557.861 -22949923.919 10 0 60992 62100.00000 0 4020258.199 11580220.692 -22340869.966 10 0 60992 63000.00000 0 2459878.538 13786827.097 -21296670.346 10 0 60992 63900.00000 0 1150820.047 15972635.487 -19837931.400 10 0 60992 64800.00000 0 105851.874 18070785.942 -17993309.878 10 0 60992 65700.00000 0 -675047.434 20014975.721 -15798932.653 10 0 60992 66600.00000 0 -1204431.677 21742122.625 -13297673.257 10 0 60992 67500.00000 0 -1506595.972 23194905.035 -10538300.750 10 0 60992 68400.00000 0 -1616289.472 24324073.176 -7574518.649 10 0 60992 69300.00000 0 -1576988.930 25090436.165 -4463913.526 10 0 60992 70200.00000 0 -1438808.184 25466443.480 -1266834.319 10 0 60992 71100.00000 0 -1256133.329 25437296.689 1954775.665 10 0 60992 72000.00000 0 -1085084.181 25001547.053 5138571.491 10 0 60992 72900.00000 0 -980909.234 24171156.013 8223001.521 10 0 60992 73800.00000 0 -995423.432 22971017.746 11148482.307 10 0 60992 74700.00000 0 -1174595.742 21437964.945 13858531.965 10 0 60992 75600.00000 0 -1556386.884 19619299.898 16300841.717 10 0 60992 76500.00000 0 -2168926.931 17570911.994 18428266.663 10 0 60992 77400.00000 0 -3029108.364 15355059.256 20199718.472 10 0 60992 78300.00000 0 -4141653.145 13037904.763 21580944.545 10 0 60992 79200.00000 0 -5498693.066 10686908.414 22545180.146 10 0 60992 80100.00000 0 -7079881.935 8368180.196 23073662.078 10 0 60992 81000.00000 0 -8853036.604 6143902.523 23155994.622 10 0 60992 81900.00000 0 -10775282.564 4069926.542 22790360.769 10 0 60992 82800.00000 0 -12794659.195 2193640.510 21983574.011 10 0 60992 83700.00000 0 -14852120.949 552197.616 20750968.523 10 0 60992 84600.00000 0 -16883854.143 -828823.587 19116128.061 10 0 60992 85500.00000 0 -18823815.496 -1936270.172 17110456.648 10 0 60993 0.00000 0 -20606388.454 -2769741.016 14772597.191 10 0 60993 900.00000 0 -22169048.561 -3341373.753 12147705.562 10 0 60993 1800.00000 0 -23454924.370 -3675099.064 9286595.234 10 0 60993 2700.00000 0 -24415149.188 -3805393.771 6244763.152 10 0 60993 3600.00000 0 -25010901.085 -3775583.055 3081317.603 10 0 60993 4500.00000 0 -25215044.293 -3635763.387 -142172.672 10 0 60993 5400.00000 0 -25013300.227 -3440434.020 -3362885.300 10 0 60993 6300.00000 0 -24404896.168 -3245938.178 -6517982.558 10 0 60993 7200.00000 0 -23402661.835 -3107823.932 -9545855.377 10 0 60993 8100.00000 0 -22032567.829 -3078238.890 -12387346.838 10 0 60993 9000.00000 0 -20332724.094 -3203471.741 -14986929.094 10 0 60993 9900.00000 0 -18351880.135 -3521747.697 -17293808.494 10 0 60993 10800.00000 0 -16147490.334 -4061373.940 -19262935.348 10 0 60993 11700.00000 0 -13783426.703 -4839315.921 -20855896.984 10 0 60993 12600.00000 0 -11327436.490 -5860266.619 -22041675.491 10 0 60993 13500.00000 0 -8848452.919 -7116249.243 -22797254.781 10 0 60993 14400.00000 0 -6413873.224 -8586770.695 -23108065.098 10 0 60993 15300.00000 0 -4086919.105 -10239519.201 -22968256.759 10 0 60993 16200.00000 0 -1924190.572 -12031576.074 -22380798.744 10 0 60993 17100.00000 0 26484.746 -13911089.681 -21357401.458 10 0 60993 18000.00000 0 1727817.917 -15819340.024 -19918266.684 10 0 60993 18900.00000 0 3154368.628 -17693106.101 -18091671.193 10 0 60993 19800.00000 0 4293346.486 -19467235.702 -15913393.764 10 0 60993 20700.00000 0 5144873.258 -21077309.217 -13425998.338 10 0 60993 21600.00000 0 5721698.474 -22462285.562 -10677988.674 10 0 60993 22500.00000 0 6048383.863 -23567019.675 -7722852.132 10 0 60993 23400.00000 0 6159994.137 -24344546.875 -4618012.151 10 0 60993 24300.00000 0 6100352.073 -24758039.697 -1423710.375 10 0 60993 25200.00000 0 5919933.543 -24782356.862 1798159.597 10 0 60993 26100.00000 0 5673492.623 -24405121.369 4985244.314 10 0 60993 27000.00000 0 5417517.526 -23627284.389 8075925.816 10 0 60993 27900.00000 0 5207624.485 -22463153.036 11010498.015 10 0 60993 28800.00000 0 5095998.646 -20939882.048 13732302.548 10 0 60993 29700.00000 0 5128988.588 -19096451.304 16188803.747 10 0 60993 30600.00000 0 5344954.305 -16982171.781 18332583.715 10 0 60993 31500.00000 0 5772457.840 -14654781.509 20122240.119 10 0 60993 32400.00000 0 6428871.561 -12178209.338 21523171.160 10 0 60993 33300.00000 0 7319462.065 -9620097.516 22508234.153 10 0 60993 34200.00000 0 8436988.381 -7049183.606 23058266.156 10 0 60993 35100.00000 0 9761832.397 -4532647.903 23162457.302 10 0 60993 36000.00000 0 11262657.939 -2133533.899 22818569.712 10 0 60993 36900.00000 0 12897573.424 91653.253 22032997.176 10 0 60993 37800.00000 0 14615752.496 2095072.260 20820663.255 10 0 60993 38700.00000 0 16359447.985 3839307.890 19204758.048 10 0 60993 39600.00000 0 18066317.972 5298696.823 17216316.501 10 0 60993 40500.00000 0 19671969.115 6460161.560 14893644.085 10 0 60993 41400.00000 0 21112612.559 7323516.706 12281598.486 10 0 60993 42300.00000 0 22327721.922 7901233.543 9430739.087 10 0 60993 43200.00000 0 23262581.729 8217671.462 6396358.935 10 0 60993 44100.00000 0 23870618.083 8307807.361 3237416.781 10 0 60993 45000.00000 0 24115411.659 8215515.760 15389.490 10 0 60993 45900.00000 0 23972305.724 7991472.008 -3206932.607 10 0 60993 46800.00000 0 23429538.641 7690767.724 -6366683.070 10 0 60993 47700.00000 0 22488850.323 7370340.607 -9402163.681 10 0 60993 48600.00000 0 21165534.615 7086329.374 -12254069.566 10 0 60993 49500.00000 0 19487933.487 6891468.245 -14866669.001 10 0 60993 50400.00000 0 17496393.184 6832634.063 -17188912.636 10 0 60993 51300.00000 0 15241725.908 6948652.576 -19175448.463 10 0 60993 52200.00000 0 12783242.011 7268459.199 -20787521.082 10 0 60993 53100.00000 0 10186436.348 7809694.014 -21993736.464 10 0 60993 54000.00000 0 7520427.082 8577791.741 -22770676.720 10 0 60993 54900.00000 0 4855255.662 9565605.780 -23103352.762 10 0 60993 55800.00000 0 2259162.200 10753582.141 -22985486.514 10 0 60993 56700.00000 0 -204049.053 12110475.306 -22419618.068 10 0 60993 57600.00000 0 -2477443.876 13594574.829 -21417036.949 10 0 60993 58500.00000 0 -4513090.802 15155389.627 -19997540.323 10 0 60993 59400.00000 0 -6273804.696 16735717.742 -18189024.485 10 0 60993 60300.00000 0 -7734430.530 18274013.202 -16026919.189 10 0 60993 61200.00000 0 -8882616.440 19706949.492 -13553477.439 10 0 60993 62100.00000 0 -9719047.019 20972071.283 -10816935.967 10 0 60993 63000.00000 0 -10257130.572 22010422.954 -7870563.926 10 0 60993 63900.00000 0 -10522156.905 22769043.881 -4771619.296 10 0 60993 64800.00000 0 -10549964.212 23203226.649 -1580233.880 10 0 60993 65700.00000 0 -10385173.762 23278444.715 1641751.162 10 0 60993 66600.00000 0 -10079068.619 22971870.209 4831976.704 10 0 60993 67500.00000 0 -9687206.887 22273419.917 7928761.395 10 0 60993 68400.00000 0 -9266870.339 21186287.161 10872279.462 10 0 60993 69300.00000 0 -8874455.473 19726938.545 13605699.003 10 0 60993 70200.00000 0 -8562915.839 17924576.472 16076260.338 10 0 60993 71100.00000 0 -8379361.843 15820089.918 18236275.341 10 0 60993 72000.00000 0 -8362917.444 13464536.644 20044030.280 10 0 60993 72900.00000 0 -8542922.362 10917218.699 21464576.558 10 0 60993 73800.00000 0 -8937554.279 8243429.294 22470395.664 10 0 60993 74700.00000 0 -9552928.430 5511962.208 23041926.705 10 0 60993 75600.00000 0 -10382712.651 2792484.405 23167947.061 10 0 60993 76500.00000 0 -11408275.207 152878.085 22845798.911 10 0 60993 77400.00000 0 -12599361.086 -2343340.062 22081456.737 10 0 60993 78300.00000 0 -13915270.972 -4639417.412 20889433.328 10 0 60993 79200.00000 0 -15306496.386 -6687483.652 19292524.355 10 0 60993 80100.00000 0 -16716745.422 -8450301.374 17321394.344 10 0 60993 81000.00000 0 -18085276.845 -9902576.180 15014009.640 10 0 60993 81900.00000 0 -19349446.761 -11031771.023 12414926.919 10 0 60993 82800.00000 0 -20447362.223 -11838389.636 9574448.849 10 0 60993 83700.00000 0 -21320530.592 -12335715.816 6547661.439 10 0 60993 84600.00000 0 -21916392.538 -12549018.187 3393370.540 10 0 60993 85500.00000 0 -22190630.422 -12514252.768 172957.663 10 0 60994 0.00000 0 -22109152.447 -12276317.523 -3050822.158 10 0 60994 900.00000 0 -21649666.000 -11886932.444 -6215077.861 10 0 60994 1800.00000 0 -20802770.969 -11402235.985 -9258025.237 10 0 60994 2700.00000 0 -19572523.969 -10880200.554 -12120214.769 10 0 60994 3600.00000 0 -17976447.250 -10377978.843 -14745713.970 10 0 60994 4500.00000 0 -16044980.160 -9949295.708 -17083220.620 10 0 60994 5400.00000 0 -13820395.235 -9641998.562 -19087082.859 10 0 60994 6300.00000 0 -11355224.217 -9495872.398 -20718204.538 10 0 60994 7200.00000 0 -8710260.570 -9540813.851 -21944816.949 10 0 60994 8100.00000 0 -5952223.192 -9795442.989 -22743101.206 10 0 60994 9000.00000 0 -3151180.397 -10266212.193 -23097649.075 10 0 60994 9900.00000 0 -377843.162 -10947049.812 -23001753.660 10 0 60994 10800.00000 0 2299158.252 -11819553.016 -22457525.186 10 0 60994 11700.00000 0 4815900.095 -12853720.535 -21475830.854 10 0 60994 12600.00000 0 7115583.857 -14009192.899 -20076061.390 10 0 60994 13500.00000 0 9150647.877 -15236946.214 -18285730.476 10 0 60994 14400.00000 0 10884485.351 -16481366.511 -16139916.460 10 0 60994 15300.00000 0 12292699.338 -17682615.834 -13680558.831 10 0 60994 16200.00000 0 13363845.244 -18779189.450 -10955624.554 10 0 60994 17100.00000 0 14099633.056 -19710555.925 -8018161.725 10 0 60994 18000.00000 0 14514584.261 -20419768.950 -4925259.936 10 0 60994 18900.00000 0 14635161.238 -20855941.507 -1736938.205 10 0 60994 19800.00000 0 14498408.566 -20976479.314 1485017.643 10 0 60994 20700.00000 0 14150165.769 -20748980.945 4678245.605 10 0 60994 21600.00000 0 13642928.280 -20152726.341 7781003.553 10 0 60994 22500.00000 0 13033447.390 -19179692.688 10733348.419 10 0 60994 23400.00000 0 12380170.192 -17835056.342 13478276.885 10 0 60994 24300.00000 0 11740626.471 -16137160.612 15962807.079 10 0 60994 25200.00000 0 11168871.100 -14116950.958 18138982.144 10 0 60994 26100.00000 0 10713087.859 -11816900.737 19964778.116 10 0 60994 27000.00000 0 10413453.567 -9289471.088 21404900.421 10 0 60994 27900.00000 0 10300350.720 -6595167.117 22431455.209 10 0 60994 28800.00000 0 10393002.563 -3800268.805 23024483.787 10 0 60994 29700.00000 0 10698587.419 -974327.991 23172350.604 10 0 60994 30600.00000 0 11211869.789 1812467.671 22871977.420 10 0 60994 31500.00000 0 11915364.859 4491957.246 22128918.660 10 0 60994 32400.00000 0 12780031.387 7000587.567 20957275.325 10 0 60994 33300.00000 0 13766466.347 9281807.573 19379447.435 10 0 60994 34200.00000 0 14826553.893 11288177.596 17425727.668 10 0 60994 35100.00000 0 15905502.089 12983106.220 15133741.633 10 0 60994 36000.00000 0 16944184.116 14342142.032 12547743.222 10 0 60994 36900.00000 0 17881687.172 15353765.300 9717776.440 10 0 60994 37800.00000 0 18657962.553 16019645.127 6698718.161 10 0 60994 38700.00000 0 19216465.102 16354349.802 3549219.103 10 0 60994 39600.00000 0 19506669.546 16384521.106 330563.074 10 0 60994 40500.00000 0 19486355.534 16147546.388 -2894533.158 10 0 60994 41400.00000 0 19123562.241 15689783.982 -6063155.142 10 0 60994 42300.00000 0 18398126.963 15064417.180 -9113435.569 10 0 60994 43200.00000 0 17302739.678 14329028.537 -11985782.460 10 0 60994 44100.00000 0 15843466.207 13542998.699 -14624064.564 10 0 60994 45000.00000 0 14039715.626 12764842.004 -16976728.587 10 0 60994 45900.00000 0 11923651.654 12049593.900 -18997824.408 10 0 60994 46800.00000 0 9539071.886 11446363.073 -20647916.545 10 0 60994 47700.00000 0 6939801.894 10996153.811 -21894862.851 10 0 60994 48600.00000 0 4187672.033 10730052.193 -22714444.541 10 0 60994 49500.00000 0 1350162.657 10667853.567 -23090835.150 10 0 60994 50400.00000 0 -1502182.580 10817189.408 -23016899.666 10 0 60994 51300.00000 0 -4298466.174 11173189.785 -22494318.887 10 0 60994 52200.00000 0 -6970155.088 11718694.466 -21533537.781 10 0 60994 53100.00000 0 -9453694.216 12425002.048 -20153540.350 10 0 60994 54000.00000 0 -11692906.365 13253123.564 -18381456.981 10 0 60994 54900.00000 0 -13641079.782 14155485.684 -16252013.546 10 0 60994 55800.00000 0 -15262657.886 15078009.830 -13806834.603 10 0 60994 56700.00000 0 -16534463.161 15962477.992 -11093615.650 10 0 60994 57600.00000 0 -17446406.989 16749084.451 -8165181.803 10 0 60994 58500.00000 0 -18001658.993 17379065.283 -5078452.177 10 0 60994 59400.00000 0 -18216272.082 17797294.890 -1893330.782 10 0 60994 60300.00000 0 -18118282.012 17954740.726 1328454.210 10 0 60994 61200.00000 0 -17746321.901 17810673.878 4524540.329 10 0 60994 62100.00000 0 -17147811.899 17334543.760 7633127.163 10 0 60994 63000.00000 0 -16376801.302 16507439.535 10594156.919 10 0 60994 63900.00000 0 -15491554.205 15323078.136 13350457.474 10 0 60994 64800.00000 0 -14551979.748 13788278.422 15848827.387 10 0 60994 65700.00000 0 -13617013.833 11922902.008 18041043.654 10 0 60994 66600.00000 0 -12742060.635 9759263.002 19884774.563 10 0 60994 67500.00000 0 -11976599.449 7341030.288 21344381.880 10 0 60994 68400.00000 0 -11362055.377 4721666.358 22391598.493 10 0 60994 69300.00000 0 -10930021.552 1962465.291 23006069.681 10 0 60994 70200.00000 0 -10700906.328 -869731.452 23175748.371 10 0 60994 71100.00000 0 -10683061.729 -3705049.674 22897136.896 10 0 60994 72000.00000 0 -10872430.070 -6473226.255 22175370.132 10 0 60994 72900.00000 0 -11252724.700 -9106275.248 21024137.303 10 0 60994 73800.00000 0 -11796139.110 -11541067.882 19465442.265 10 0 60994 74700.00000 0 -12464556.885 -13721720.872 17529204.797 10 0 60994 75600.00000 0 -13211214.105 -15601694.462 15252708.232 10 0 60994 76500.00000 0 -13982746.608 -17145512.796 12679901.660 10 0 60994 77400.00000 0 -14721537.771 -18330034.029 9860568.022 10 0 60994 78300.00000 0 -15368269.046 -19145215.751 6849372.330 10 0 60994 79200.00000 0 -15864565.935 -19594342.040 3704807.196 10 0 60994 80100.00000 0 -16155626.988 -19693700.933 488055.575 10 0 60994 81000.00000 0 -16192723.149 -19471724.511 -2738207.004 10 0 60994 81900.00000 0 -15935459.443 -18967626.880 -5911046.611 10 0 60994 82800.00000 0 -15353700.456 -18229597.285 -8968515.903 10 0 60994 83700.00000 0 -14429075.097 -17312625.125 -11850883.746 10 0 60994 84600.00000 0 -13155993.981 -16276049.958 -14501823.336 10 0 60994 85500.00000 0 -11542133.761 -15180941.835 -16869533.326 10 0 60995 0.00000 0 -9608366.055 -14087424.893 -18907767.884 10 0 60995 900.00000 0 -7388131.401 -13052058.975 -20576754.892 10 0 60995 1800.00000 0 -4926286.580 -12125393.405 -21843980.397 10 0 60995 2700.00000 0 -2277470.274 -11349795.885 -22684826.976 10 0 60995 3600.00000 0 495941.334 -10757650.616 -23083050.599 10 0 60995 4500.00000 0 3326203.474 -10370001.349 -23031088.217 10 0 60995 5400.00000 0 6142795.944 -10195696.163 -22530190.719 10 0 60995 6300.00000 0 8875131.304 -10231068.816 -21590379.886 10 0 60995 7200.00000 0 11455264.438 -10460168.278 -20230231.611 10 0 60995 8100.00000 0 13820490.407 -10855524.571 -18476491.228 10 0 60995 9000.00000 0 15915722.788 -11379416.240 -16363530.046 10 0 60995 9900.00000 0 17695554.529 -11985583.648 -13932655.279 10 0 60995 10800.00000 0 19125917.196 -12621313.769 -11231288.255 10 0 60995 11700.00000 0 20185271.845 -13229806.851 -8312028.130 10 0 60995 12600.00000 0 20865284.585 -13752724.004 -5231620.336 10 0 60995 13500.00000 0 21170961.687 -14132807.731 -2049850.535 10 0 60995 14400.00000 0 21120241.638 -14316465.004 1171614.164 10 0 60995 15300.00000 0 20743064.008 -14256204.581 4370414.165 10 0 60995 16200.00000 0 20079956.446 -13912826.953 7484693.952 10 0 60995 17100.00000 0 19180200.685 -13257275.985 10454283.910 10 0 60995 18000.00000 0 18099655.298 -12272075.655 13221845.674 10 0 60995 18900.00000 0 16898326.556 -10952292.630 15733960.401 10 0 60995 19800.00000 0 15637788.449 -9305984.911 17942140.687 10 0 60995 20700.00000 0 14378558.657 -7354117.815 19803748.397 10 0 60995 21600.00000 0 13177538.554 -5129950.071 21282802.551 10 0 60995 22500.00000 0 12085622.435 -2677914.154 22350663.286 10 0 60995 23400.00000 0 11145574.090 -52035.367 22986579.990 10 0 60995 24300.00000 0 10390258.018 2686047.368 23178093.821 10 0 60995 25200.00000 0 9841298.207 5469379.896 22921287.082 10 0 60995 26100.00000 0 9508220.289 8228218.136 22220874.162 10 0 60995 27000.00000 0 9388113.398 10892678.609 21090131.253 10 0 60995 27900.00000 0 9465827.001 13395406.719 19550664.499 10 0 60995 28800.00000 0 9714696.163 15674153.944 17632018.984 10 0 60995 29700.00000 0 10097766.830 17674157.863 15371133.734 10 0 60995 30600.00000 0 10569471.732 19350226.255 12811650.824 10 0 60995 31500.00000 0 11077688.246 20668437.725 10003089.742 10 0 60995 32400.00000 0 11566092.840 21607386.588 6999901.112 10 0 60995 33300.00000 0 11976713.345 22158918.187 3860416.803 10 0 60995 34200.00000 0 12252570.992 22328321.888 645716.245 10 0 60995 35100.00000 0 12340299.308 22133971.873 -2581568.949 10 0 60995 36000.00000 0 12192627.062 21606429.460 -5758487.956 10 0 60995 36900.00000 0 11770617.553 20787043.925 -8823015.815 10 0 60995 37800.00000 0 11045566.409 19726110.797 -11715284.446 10 0 60995 38700.00000 0 10000474.476 18480665.974 -14378773.421 10 0 60995 39600.00000 0 8631030.563 17112010.143 -16761434.993 10 0 60995 40500.00000 0 6946060.044 15683069.803 -18816729.349 10 0 60995 41400.00000 0 4967418.458 14255708.345 -20504548.135 10 0 60995 42300.00000 0 2729333.434 12888102.689 -21792006.912 10 0 60995 43200.00000 0 277222.165 11632297.816 -22654090.336 10 0 60995 44100.00000 0 -2333965.780 10532043.459 -23074137.321 10 0 60995 45000.00000 0 -5041810.147 9621004.581 -23044157.032 10 0 60995 45900.00000 0 -7778798.935 8921420.676 -22564970.422 10 0 60995 46800.00000 0 -10474924.180 8443269.230 -21646175.705 10 0 60995 47700.00000 0 -13060385.276 8183966.772 -20305939.915 10 0 60995 48600.00000 0 -15468286.572 8128617.739 -18570622.203 10 0 60995 49500.00000 0 -17637216.765 8250798.017 -16474237.836 10 0 60995 50400.00000 0 -19513603.104 8513837.377 -14057774.929 10 0 60995 51300.00000 0 -21053743.513 8872544.141 -11368378.675 10 0 60995 52200.00000 0 -22225433.704 9275297.083 -8458420.170 10 0 60995 53100.00000 0 -23009123.706 9666414.571 -5384469.006 10 0 60995 54000.00000 0 -23398558.197 9988699.873 -2206190.288 10 0 60995 54900.00000 0 -23400876.710 10186054.774 1014812.154 10 0 60995 55800.00000 0 -23036172.240 10206051.401 4216183.846 10 0 60995 56700.00000 0 -22336529.127 10002354.530 7336016.449 10 0 60995 57600.00000 0 -21344582.356 9536893.357 10314030.844 10 0 60995 58500.00000 0 -20111659.761 8781692.539 13092724.764 10 0 60995 59400.00000 0 -18695585.290 7720286.698 15618464.299 10 0 60995 60300.00000 0 -17158234.861 6348659.807 17842499.916 10 0 60995 61200.00000 0 -15562945.930 4675670.458 19721889.203 10 0 60995 62100.00000 0 -13971887.405 2722944.828 21220310.375 10 0 60995 63000.00000 0 -12443497.750 524240.714 22308752.506 10 0 60995 63900.00000 0 -11030096.207 -1875692.706 22966070.451 10 0 60995 64800.00000 0 -9775764.889 -4422714.427 23179394.616 10 0 60995 65700.00000 0 -8714588.638 -7055287.022 22944387.888 10 0 60995 66600.00000 0 -7869325.196 -9706788.176 22265344.393 10 0 60995 67500.00000 0 -7250561.002 -12308045.592 21155127.092 10 0 60995 68400.00000 0 -6856388.378 -14789992.854 19634943.801 10 0 60995 69300.00000 0 -6672618.714 -17086338.182 17733963.877 10 0 60995 70200.00000 0 -6673524.327 -19136136.599 15488780.613 10 0 60995 71100.00000 0 -6823079.627 -20886159.052 12942727.271 10 0 60995 72000.00000 0 -7076651.173 -22292959.371 10145057.772 10 0 60995 72900.00000 0 -7383066.896 -23324551.658 7150005.971 10 0 60995 73800.00000 0 -7686978.017 -23961626.192 4015740.426 10 0 60995 74700.00000 0 -7931414.001 -24198250.802 803234.300 10 0 60995 75600.00000 0 -8060421.724 -24042026.131 -2424927.549 10 0 60995 76500.00000 0 -8021675.522 -23513686.377 -5605780.334 10 0 60995 77400.00000 0 -7768945.291 -22646160.927 -8677224.466 10 0 60995 78300.00000 0 -7264315.228 -21483135.724 -11579257.916 10 0 60995 79200.00000 0 -6480056.207 -20077175.082 -14255169.608 10 0 60995 80100.00000 0 -5400069.453 -18487483.940 -16652668.256 10 0 60995 81000.00000 0 -4020837.761 -16777406.362 -18724922.552 10 0 60995 81900.00000 0 -2351841.809 -15011767.500 -20431490.625 10 0 60995 82800.00000 0 -415422.444 -13254172.980 -21739119.297 10 0 60995 83700.00000 0 1753906.127 -11564381.220 -22622396.783 10 0 60995 84600.00000 0 4110663.564 -9995860.598 -23064245.899 10 0 60995 85500.00000 0 6600079.976 -8593634.975 -23056248.472 99